| time (UTC) | temp F | wind direction | speed knots | gust knots | rain 1hr in | rain 24hr in | rain mn in | humidity % | barometer mb |
| 20260510180026 | 62 | 308 | 2.6 | 7.8 | 0.53 | 0.69 | 0.69 | 95 | 1016.2 |
| 20260510174526 | 63 | 252 | 1.7 | 7.0 | 0.49 | 0.65 | 0.65 | 94 | 1017.1 |
| 20260510173025 | 63 | 61 | 2.6 | 9.6 | 0.33 | 0.49 | 0.49 | 91 | 1017.6 |
| 20260510171527 | 67 | 78 | 5.2 | 11.3 | 0.07 | 0.23 | 0.23 | 83 | 1016.9 |
| 20260510170021 | 75 | 82 | 2.6 | 9.6 | 0.00 | 0.16 | 0.16 | 67 | 1017.2 |
| 20260510164517 | 80 | 254 | 0.9 | 4.3 | 0.00 | 0.16 | 0.16 | 66 | 1015.2 |
| 20260510163016 | 81 | 139 | 2.6 | 7.8 | 0.00 | 0.16 | 0.16 | 65 | 1014.7 |
| 20260510161511 | 81 | 127 | 4.3 | 9.6 | 0.00 | 0.16 | 0.16 | 65 | 1014.0 |
| 20260510160012 | 80 | 204 | 2.6 | 6.1 | 0.00 | 0.16 | 0.16 | 67 | 1013.7 |
| 20260510154504 | 78 | 115 | 1.7 | 7.8 | 0.00 | 0.16 | 0.16 | 68 | 1013.4 |
| 20260510153004 | 78 | 202 | 3.5 | 9.6 | 0.00 | 0.16 | 0.16 | 68 | 1013.2 |
| 20260510151559 | 76 | 158 | 1.7 | 6.1 | 0.00 | 0.16 | 0.16 | 72 | 1013.2 |
| 20260510150056 | 74 | 214 | 2.6 | 7.0 | 0.00 | 0.16 | 0.16 | 76 | 1012.9 |
| 20260510144605 | 72 | 236 | 2.6 | 7.0 | 0.00 | 0.16 | 0.16 | 82 | 1012.8 |
| 20260510143054 | 69 | 108 | 2.6 | 7.0 | 0.00 | 0.16 | 0.16 | 86 | 1013.2 |
| 20260510141553 | 68 | 236 | 1.7 | 4.3 | 0.00 | 0.16 | 0.16 | 86 | 1014.0 |
| 20260510140052 | 67 | 245 | 0.9 | 6.1 | 0.00 | 0.16 | 0.16 | 89 | 1014.5 |
| 20260510134552 | 66 | 95 | 0.9 | 5.2 | 0.00 | 0.16 | 0.16 | 92 | 1014.3 |
| 20260510133052 | 65 | 150 | 0.0 | 3.5 | 0.00 | 0.16 | 0.16 | 94 | 1014.5 |
| 20260510131550 | 64 | 172 | 0.0 | 2.6 | 0.00 | 0.16 | 0.16 | 95 | 1014.3 |
| 20260510130049 | 64 | 195 | 0.0 | 3.5 | 0.00 | 0.16 | 0.16 | 94 | 1014.3 |
| 20260510124548 | 64 | 137 | 0.0 | 2.6 | 0.00 | 0.16 | 0.16 | 94 | 1014.3 |
| 20260510123047 | 63 | 150 | 0.0 | 1.7 | 0.00 | 0.16 | 0.16 | 94 | 1014.1 |
| 20260510121545 | 63 | 176 | 0.0 | 2.6 | 0.00 | 0.16 | 0.16 | 94 | 1013.7 |
| 20260510120045 | 63 | 117 | 0.0 | 0.9 | 0.00 | 0.16 | 0.16 | 94 | 1014.0 |
| 20260510114551 | 63 | 155 | 0.0 | 0.9 | 0.00 | 0.16 | 0.16 | 94 | 1014.0 |
| 20260510113044 | 64 | 139 | 0.0 | 3.5 | 0.00 | 0.16 | 0.16 | 93 | 1013.7 |
| 20260510111540 | 64 | 243 | 0.0 | 2.6 | 0.00 | 0.16 | 0.16 | 93 | 1013.3 |
| 20260510110049 | 64 | 99 | 0.0 | 3.5 | 0.09 | 0.16 | 0.16 | 93 | 1013.1 |
| 20260510104539 | 64 | 164 | 0.9 | 2.6 | 0.11 | 0.16 | 0.16 | 93 | 1012.9 |
| 20260510103043 | 64 | 178 | 0.9 | 5.2 | 0.14 | 0.16 | 0.16 | 93 | 1012.5 |
| 20260510101536 | 64 | 116 | 1.7 | 8.7 | 0.16 | 0.16 | 0.16 | 92 | 1012.2 |
| 20260510100046 | 65 | 82 | 0.9 | 5.2 | 0.07 | 0.07 | 0.07 | 91 | 1014.2 |
| 20260510094539 | 65 | 258 | 3.5 | 9.6 | 0.05 | 0.05 | 0.05 | 89 | 1013.8 |
| 20260510093027 | 69 | 89 | 4.3 | 9.6 | 0.02 | 0.02 | 0.02 | 83 | 1013.7 |
| 20260510091526 | 71 | 142 | 2.6 | 8.7 | 0.00 | 0.00 | 0.00 | 84 | 1013.9 |
| 20260510090019 | 73 | 29 | 1.7 | 3.5 | 0.00 | 0.00 | 0.00 | 92 | 1013.0 |
| 20260510084515 | 73 | 129 | 0.9 | 3.5 | 0.00 | 0.00 | 0.00 | 92 | 1012.2 |
| 20260510083013 | 73 | 92 | 0.9 | 2.6 | 0.00 | 0.00 | 0.00 | 92 | 1012.0 |
| 20260510081510 | 73 | 27 | 0.0 | 2.6 | 0.00 | 0.00 | 0.00 | 91 | 1011.7 |
| 20260510080032 | 73 | 112 | 0.0 | 1.7 | 0.00 | 0.00 | 0.00 | 91 | 1010.8 |
| 20260510074507 | 74 | 120 | 0.0 | 3.5 | 0.00 | 0.00 | 0.00 | 90 | 1010.6 |
| 20260510073005 | 74 | 237 | 1.7 | 5.2 | 0.00 | 0.00 | 0.00 | 89 | 1009.9 |
| 20260510071503 | 74 | 89 | 0.0 | 2.6 | 0.00 | 0.00 | 0.00 | 88 | 1010.9 |
| 20260510070003 | 74 | 84 | 0.9 | 2.6 | 0.00 | 0.00 | 0.00 | 88 | 1011.7 |
| 20260510064502 | 74 | 184 | 0.0 | 1.7 | 0.00 | 0.00 | 0.00 | 88 | 1011.5 |
| 20260510063001 | 74 | 340 | 0.0 | 0.9 | 0.00 | 0.00 | 0.00 | 87 | 1011.3 |
| 20260510061557 | 74 | 109 | 0.0 | 1.7 | 0.00 | 0.00 | 0.00 | 87 | 1010.6 |
| 20260510060058 | 74 | 122 | 0.9 | 3.5 | 0.00 | 0.00 | 0.00 | 87 | 1009.7 |
| 20260510054554 | 74 | 122 | 0.9 | 5.2 | 0.00 | 0.00 | 0.00 | 87 | 1009.7 |
| 20260510053058 | 74 | 113 | 1.7 | 5.2 | 0.00 | 0.00 | 0.00 | 87 | 1009.6 |
| 20260510051604 | 74 | 105 | 1.7 | 3.5 | 0.00 | 0.00 | 0.00 | 87 | 1009.5 |
| 20260510050059 | 74 | 158 | 0.9 | 4.3 | 0.00 | 0.00 | 0.00 | 87 | 1009.3 |
| 20260510044549 | 74 | 132 | 0.9 | 3.5 | 0.00 | 0.00 | 0.00 | 87 | 1008.8 |
| 20260510043049 | 75 | 115 | 0.9 | 4.3 | 0.00 | 0.00 | 0.00 | 85 | 1008.8 |
| 20260510041547 | 75 | 255 | 0.9 | 5.2 | 0.00 | 0.00 | 0.00 | 84 | 1009.2 |
| 20260510040048 | 75 | 121 | 0.9 | 3.5 | 0.00 | 0.00 | 0.00 | 82 | 1009.1 |
| 20260510034547 | 76 | 160 | 0.0 | 3.5 | 0.00 | 0.00 | 0.00 | 79 | 1008.9 |
| 20260510033054 | 76 | 118 | 0.0 | 2.6 | 0.00 | 0.00 | 0.00 | 77 | 1009.1 |
| 20260510031549 | 76 | 114 | 0.0 | 2.6 | 0.00 | 0.00 | 0.00 | 76 | 1009.1 |
| 20260510030045 | 76 | 120 | 0.0 | 1.7 | 0.00 | 0.00 | 0.00 | 76 | 1009.1 |
| 20260510024545 | 76 | 126 | 0.0 | 1.7 | 0.00 | 0.00 | 0.00 | 75 | 1009.1 |
| 20260510023045 | 77 | 109 | 0.0 | 0.9 | 0.00 | 0.00 | 0.00 | 74 | 1009.1 |
| 20260510021635 | 77 | 203 | 0.0 | 0.9 | 0.00 | 0.00 | 0.00 | 73 | 1008.9 |
| 20260510020044 | 78 | 117 | 0.0 | 1.7 | 0.00 | 0.00 | 0.00 | 71 | 1008.8 |
| 20260510014553 | 80 | 122 | 0.0 | 0.9 | 0.00 | 0.00 | 0.00 | 68 | 1008.7 |
| 20260510013053 | 81 | 169 | 0.0 | 2.6 | 0.00 | 0.00 | 0.00 | 67 | 1008.4 |
| 20260510011542 | 82 | 120 | 0.0 | 1.7 | 0.00 | 0.00 | 0.00 | 65 | 1008.3 |
| 20260510010050 | 82 | 120 | 0.0 | 2.6 | 0.00 | 0.00 | 0.00 | 63 | 1008.1 |
| 20260510004541 | 83 | 128 | 0.0 | 1.7 | 0.00 | 0.00 | 0.00 | 61 | 1008.0 |
| 20260510003041 | 84 | 141 | 0.0 | 1.7 | 0.00 | 0.00 | 0.00 | 59 | 1008.0 |
| 20260510001540 | 85 | 122 | 0.0 | 2.6 | 0.00 | 0.00 | 0.00 | 57 | 1008.1 |
| 20260510000039 | 85 | 300 | 0.0 | 1.7 | 0.00 | 0.00 | 0.00 | 56 | 1007.9 |
| 20260509234538 | 86 | 129 | 0.0 | 2.6 | 0.00 | 0.00 | 0.00 | 54 | 1007.8 |
| 20260509233037 | 86 | 99 | 0.9 | 2.6 | 0.00 | 0.00 | 0.00 | 53 | 1007.9 |
| 20260509231537 | 87 | 351 | 0.0 | 1.7 | 0.00 | 0.00 | 0.00 | 52 | 1007.9 |
| 20260509230040 | 89 | 137 | 0.0 | 2.6 | 0.00 | 0.00 | 0.00 | 48 | 1007.9 |
| 20260509224536 | 91 | 122 | 0.0 | 3.5 | 0.00 | 0.00 | 0.00 | 46 | 1007.8 |
| 20260509223037 | 92 | 235 | 0.0 | 2.6 | 0.00 | 0.00 | 0.00 | 46 | 1007.7 |
| 20260509221538 | 92 | 117 | 0.0 | 2.6 | 0.00 | 0.00 | 0.00 | 47 | 1007.8 |
| 20260509220031 | 91 | 342 | 0.0 | 3.5 | 0.00 | 0.00 | 0.00 | 46 | 1007.8 |
| 20260509214530 | 91 | 133 | 0.0 | 3.5 | 0.00 | 0.00 | 0.00 | 43 | 1007.9 |
| 20260509213031 | 91 | 91 | 0.9 | 3.5 | 0.00 | 0.00 | 0.00 | 49 | 1008.1 |
| 20260509211525 | 90 | 342 | 0.9 | 3.5 | 0.00 | 0.00 | 0.00 | 52 | 1008.2 |
| 20260509210023 | 90 | 267 | 0.9 | 3.5 | 0.00 | 0.00 | 0.00 | 52 | 1008.4 |
| 20260509204521 | 89 | 23 | 0.0 | 2.6 | 0.00 | 0.00 | 0.00 | 55 | 1008.7 |
| 20260509203025 | 89 | 212 | 0.9 | 2.6 | 0.00 | 0.00 | 0.00 | 56 | 1009.1 |
| 20260509201521 | 90 | 13 | 0.9 | 5.2 | 0.00 | 0.00 | 0.00 | 56 | 1009.1 |
| 20260509200019 | 89 | 123 | 0.9 | 5.2 | 0.00 | 0.00 | 0.00 | 58 | 1009.2 |
| 20260509194530 | 89 | 119 | 0.0 | 2.6 | 0.00 | 0.00 | 0.00 | 58 | 1009.3 |
| 20260509193022 | 88 | 359 | 0.9 | 4.3 | 0.00 | 0.00 | 0.00 | 61 | 1009.3 |
| 20260509191514 | 88 | 68 | 0.9 | 3.5 | 0.00 | 0.00 | 0.00 | 61 | 1009.4 |
| 20260509190012 | 88 | 95 | 0.9 | 3.5 | 0.00 | 0.00 | 0.00 | 61 | 1009.6 |
| 20260509184511 | 87 | 283 | 0.9 | 4.3 | 0.00 | 0.00 | 0.00 | 63 | 1009.5 |
| 20260509183013 | 87 | 1 | 0.9 | 2.6 | 0.00 | 0.00 | 0.00 | 63 | 1009.7 |
| 20260509181507 | 87 | 121 | 1.7 | 4.3 | 0.00 | 0.00 | 0.00 | 64 | 1009.8 |